This is the latest recevied weather packets stored in our database for station/object OE9GTV. If no packets are shown the sender has not sent any weather packets the latest 10 day(s).
| Time | Temp. | Humidity | Pressure | Rain* | Wind** | Luminosity | Snow |
|---|---|---|---|---|---|---|---|
| 1777657271 | 21.67° C | 36% | 1019.5 hPa | 0 mm | - | 0 W/m² | - |
| 1777656671 | 22.78° C | 35% | 1019.5 hPa | 0 mm | - | 0 W/m² | - |
| 1777656076 | 23.33° C | 34% | 1019.5 hPa | 0 mm | - | 0 W/m² | - |
| 1777655476 | 23.89° C | 33% | 1019.5 hPa | 0 mm | - | 0 W/m² | - |
| 1777654876 | 24.44° C | 31% | 1019.5 hPa | 0 mm | - | 0 W/m² | - |
| 1777654276 | 24.44° C | 30% | 1019.6 hPa | 0 mm | - | 0 W/m² | - |
| 1777653676 | 24.44° C | 30% | 1019.7 hPa | 0 mm | - | 0 W/m² | - |
| 1777653076 | 23.89° C | 30% | 1019.7 hPa | 0 mm | - | 0 W/m² | - |
| 1777652476 | 23.89° C | 31% | 1019.8 hPa | 0 mm | - | 0 W/m² | - |
| 1777651876 | 23.89° C | 31% | 1019.8 hPa | 0 mm | - | 0 W/m² | - |
| 1777651275 | 23.89° C | 31% | 1019.8 hPa | 0 mm | - | 0 W/m² | - |
| 1777650676 | 23.33° C | 31% | 1019.9 hPa | 0 mm | - | 0 W/m² | - |
| 1777650075 | 23.33° C | 33% | 1019.9 hPa | 0 mm | - | 0 W/m² | - |
| 1777649475 | 23.33° C | 32% | 1020 hPa | 0 mm | - | 0 W/m² | - |
| 1777648875 | 23.33° C | 33% | 1020.1 hPa | 0 mm | - | 0 W/m² | - |
| 1777648275 | 23.33° C | 33% | 1020.1 hPa | 0 mm | - | 0 W/m² | - |
| 1777647675 | 22.78° C | 35% | 1020.3 hPa | 0 mm | - | 0 W/m² | - |
| 1777647075 | 23.33° C | 35% | 1020.3 hPa | 0 mm | - | 0 W/m² | - |
| 1777646475 | 22.78° C | 35% | 1020.4 hPa | 0 mm | - | 0 W/m² | - |
| 1777645875 | 22.78° C | 36% | 1020.5 hPa | 0 mm | - | 0 W/m² | - |
| 1777645275 | 22.22° C | 37% | 1020.6 hPa | 0 mm | - | 0 W/m² | - |
| 1777644675 | 22.78° C | 40% | 1020.7 hPa | 0 mm | - | 0 W/m² | - |
| 1777644075 | 22.22° C | 39% | 1020.8 hPa | 0 mm | - | 0 W/m² | - |
| 1777643475 | 21.67° C | 39% | 1021 hPa | 0 mm | - | 0 W/m² | - |
| 1777642875 | 21.67° C | 41% | 1021 hPa | 0 mm | - | 0 W/m² | - |
* Rain latest hour (hover to see other rain measurements)
** Current wind speed in m/s (hover to see current wind gust speed)